Location: Unspecified
(40.7945°N, 0.0000°E)
Time: 10:31:58
(UTC+00:00)

UWE-3 - Pass Details

Date: 18 August 2020
Orbit: 585 x 683 km, 97.6° (Epoch: 22 September)

Event Time Altitude Azimuth Distance (km) Brightness Sun altitude
Rises 03:40:04 0° 38° (NE) 2,820 ? -16.7°
Reaches altitude 10° 03:44:42 10° 86° (E) 1,923 ? -15.9°
Maximum altitude 03:44:58 10° 90° (E) 1,920 ? -15.9°
Drops below altitude 10° 03:45:14 10° 93° (E) 1,924 ? -15.8°
Sets 03:49:52 0° 141° (SE) 2,839 ? -15.1°
